STARLINK-1417 (45693 NORAD) Tracking and Keplerian Element Data

This shows tracking and keplerian element data for the satellite.

Feedback or suggestion? Click here.




ElementValue
Catalog45693
NameSTARLINK-1417
Epoch Orbit568
Epoch Day186.50001157
Epoch Year2020
RAAN20.0165
Inclination52.9992
Eccentricity0.0001219
Argument of Perigee72.5047
Mean Anonmoly250.2864
Mean Motion15.62788882
Decay Rate-0.00052816
L11 45693U 20035AN 20186.50001157 -.00052816 00000-0 -57390-3 0 9994
L22 45693 52.9992 20.0165 0001219 72.5047 250.2864 15.62788882 5688

Live tracking and technical data element details for STARLINK-1417 (NORAD 45693). STARLINK-1417 can be tracked NOW for your location showing map with azimuth and elevation plus other details from your city location.

Track the satellite on the map from your city or location and see movement details for azimuth, elevation, latitude, longitude, range, height, and movement on the map or in text.







IsCatalogInMostPopularTable: catalog: 45693, numindb: 4
Update: records affected: 1



GetName: 45693 STARLINK-1417

Hit Count: updated at: Sun, 05 Jul 2020 16:37:20 GMT